Weather History for Marion, VA

Change the Weather History Date:

Monday, December 5, 2011

  Actual Average (KGEV) Record (KGEV)
Temperature  
Mean Temperature 53 °F -  
Max Temperature 62 °F 49 °F 68 °F (2001)
Min Temperature 44 °F 25 °F 1 °F (1974)
Degree Days  
Heating Degree Days 12    
Growing Degree Days 3 (Base 50)    
Moisture  
Dew Point 47 °F    
Average Humidity 75    
Maximum Humidity 88    
Minimum Humidity 63    
Precipitation  
Precipitation 0.00 in - - ()
Sea Level Pressure  
Sea Level Pressure 30.24 in    
Wind  
Wind Speed 7 mph (ENE)    
Max Wind Speed 10 mph    
Max Gust Speed 23 mph    
Visibility 10 miles    
Events      
Averages and records for this station are not official NWS values.
T = Trace of Precipitation, MM = Missing Value Source: NWS Daily Summary

Daily Weather History Graph

Daily Weather History Graph

Search for Another Location

Airport:

Trip Planner

Search our weather history database for the weather conditions in past years. The results will help you decide how hot, cold, wet, or windy it might be!

Date:

Astronomy

Dec. 05, 2011 Rise Set
Actual Time 7:23 AM EST 5:08 PM EST
Civil Twilight 6:54 AM EST 5:37 PM EST
Nautical Twilight 6:22 AM EST 6:09 PM EST
Astronomical Twilight 5:50 AM EST 6:40 PM EST
Moon 2:01 PM EST (12/5) 2:48 AM EST (12/5)
Length of Visible Light 10h 42m
Length of Day
9h 45m
Waxing Gibbous, 79% of the Moon is Illuminated
Dec 5
Waxing Gibbous
Dec 10
Full
Dec 17
Last Quarter
Dec 24
New
Jan 1
First Quarter

Hourly Weather History & Observations

Time (EST) Temp. Windchill Dew Point Humidity Pressure Visibility Wind Dir Wind Speed Gust Speed Precip Events Conditions
12:15 AM 46.4 °F 43.5 °F 41.0 °F 81% 30.35 in 10.0 mi NNE 5.8 mph - N/A   Clear
12:35 AM 46.4 °F 41.9 °F 41.0 °F 81% 30.34 in 10.0 mi NNE 9.2 mph - N/A   Clear
12:55 AM 44.6 °F 39.7 °F 41.0 °F 87% 30.33 in 10.0 mi NNE 9.2 mph - N/A   Scattered Clouds
1:15 AM 46.4 °F 43.5 °F 41.0 °F 81% 30.32 in 10.0 mi NNE 5.8 mph - N/A   Clear
1:35 AM 46.4 °F 44.3 °F 41.0 °F 81% 30.32 in 10.0 mi NE 4.6 mph - N/A   Scattered Clouds
2:15 AM 46.4 °F - 41.0 °F 81% 30.32 in 10.0 mi Calm Calm - N/A   Mostly Cloudy
2:35 AM 46.4 °F 44.3 °F 41.0 °F 81% 30.31 in 10.0 mi NNE 4.6 mph - N/A   Mostly Cloudy
2:55 AM 44.6 °F 40.2 °F 41.0 °F 87% 30.31 in 10.0 mi NNE 8.1 mph - N/A   Mostly Cloudy
3:15 AM 46.4 °F 42.4 °F 41.0 °F 81% 30.31 in 10.0 mi NE 8.1 mph - N/A   Overcast
3:35 AM 46.4 °F 43.5 °F 41.0 °F 81% 30.30 in 10.0 mi North 5.8 mph - N/A   Mostly Cloudy
3:55 AM 46.4 °F 44.3 °F 42.8 °F 87% 30.29 in 10.0 mi NNE 4.6 mph - N/A   Overcast
4:15 AM 46.4 °F 42.4 °F 42.8 °F 87% 30.29 in 10.0 mi NE 8.1 mph - N/A   Overcast
4:35 AM 50.0 °F - 42.8 °F 76% 30.28 in 10.0 mi NNE 10.4 mph - N/A   Overcast
5:15 AM 50.0 °F - 42.8 °F 76% 30.29 in 10.0 mi NNE 6.9 mph - N/A   Overcast
5:35 AM 50.0 °F - 42.8 °F 76% 30.29 in 10.0 mi ENE 6.9 mph - N/A   Overcast
6:15 AM 50.0 °F - 42.8 °F 76% 30.30 in 10.0 mi NE 10.4 mph - N/A   Overcast
6:35 AM 50.0 °F - 42.8 °F 76% 30.30 in 10.0 mi East 9.2 mph - N/A   Overcast
6:55 AM 51.8 °F - 42.8 °F 71% 30.30 in 10.0 mi East 8.1 mph 16.1 mph N/A   Overcast
7:35 AM 51.8 °F - 42.8 °F 71% 30.32 in 10.0 mi NE 8.1 mph - N/A   Overcast
7:55 AM 51.8 °F - 42.8 °F 71% 30.31 in 10.0 mi NE 9.2 mph - N/A   Overcast
8:15 AM 51.8 °F - 42.8 °F 71% 30.31 in 10.0 mi NE 8.1 mph - N/A   Mostly Cloudy
8:35 AM 51.8 °F - 42.8 °F 71% 30.31 in 10.0 mi NNE 8.1 mph - N/A   Mostly Cloudy
8:55 AM 51.8 °F - 44.6 °F 76% 30.31 in 10.0 mi NE 6.9 mph - N/A   Overcast
9:15 AM 51.8 °F - 44.6 °F 76% 30.30 in 10.0 mi ENE 8.1 mph - N/A   Overcast
9:35 AM 51.8 °F - 44.6 °F 76% 30.30 in 10.0 mi NNE 9.2 mph - N/A   Overcast
9:55 AM 51.8 °F - 44.6 °F 76% 30.30 in 10.0 mi NE 8.1 mph - N/A   Overcast
10:15 AM 51.8 °F - 44.6 °F 76% 30.30 in 10.0 mi NNE 10.4 mph - N/A   Overcast
10:35 AM 55.4 °F - 46.4 °F 72% 30.29 in 10.0 mi ENE 8.1 mph - N/A   Overcast
10:55 AM 60.8 °F - 48.2 °F 63% 30.29 in 10.0 mi SE 4.6 mph - N/A   Overcast
11:15 AM 59.0 °F - 46.4 °F 63% 30.28 in 10.0 mi SE 6.9 mph - N/A   Mostly Cloudy
11:35 AM 59.0 °F - 48.2 °F 67% 30.27 in 10.0 mi South 5.8 mph - N/A   Mostly Cloudy
11:55 AM 59.0 °F - 48.2 °F 67% 30.24 in 10.0 mi SE 10.4 mph 19.6 mph N/A   Scattered Clouds
12:15 PM 60.8 °F - 50.0 °F 68% 30.23 in 10.0 mi SSE 10.4 mph - N/A   Scattered Clouds
12:35 PM 60.8 °F - 50.0 °F 68% 30.21 in 10.0 mi ESE 4.6 mph - N/A   Scattered Clouds
12:55 PM 60.8 °F - 50.0 °F 68% 30.20 in 10.0 mi East 6.9 mph - N/A   Scattered Clouds
1:15 PM 62.6 °F - 50.0 °F 63% 30.19 in 10.0 mi SSW 9.2 mph 23.0 mph N/A   Scattered Clouds
1:35 PM 62.6 °F - 50.0 °F 63% 30.18 in 10.0 mi Calm Calm - N/A   Mostly Cloudy
1:55 PM 60.8 °F - 50.0 °F 68% 30.18 in 10.0 mi South 8.1 mph - N/A   Overcast
2:15 PM 60.8 °F - 50.0 °F 68% 30.17 in 10.0 mi South 3.5 mph - N/A   Overcast
2:35 PM 60.8 °F - 50.0 °F 68% 30.17 in 10.0 mi SE 4.6 mph - N/A   Overcast
2:55 PM 60.8 °F - 50.0 °F 68% 30.16 in 10.0 mi SE 4.6 mph - N/A   Overcast
3:15 PM 59.0 °F - 50.0 °F 72% 30.16 in 10.0 mi South 10.4 mph 16.1 mph N/A   Overcast
3:35 PM 59.0 °F - 50.0 °F 72% 30.16 in 10.0 mi Calm Calm - N/A   Overcast
3:55 PM 59.0 °F - 50.0 °F 72% 30.16 in 10.0 mi Calm Calm - N/A   Overcast
4:15 PM 59.0 °F - 50.0 °F 72% 30.15 in 10.0 mi SE 3.5 mph - N/A   Overcast
4:35 PM 59.0 °F - 50.0 °F 72% 30.15 in 10.0 mi ESE 3.5 mph - N/A   Overcast
4:55 PM 57.2 °F - 50.0 °F 77% 30.15 in 10.0 mi Calm Calm - N/A   Overcast
5:15 PM 57.2 °F - 50.0 °F 77% 30.14 in 10.0 mi SE 5.8 mph - N/A   Overcast
5:35 PM 57.2 °F - 51.8 °F 82% 30.15 in 10.0 mi Calm Calm - N/A   Overcast
6:15 PM 57.2 °F - 51.8 °F 82% 30.17 in 10.0 mi WSW 9.2 mph - N/A   Overcast
6:55 PM 57.2 °F - 51.8 °F 82% 30.19 in 10.0 mi SSE 6.9 mph - N/A   Overcast
7:15 PM 57.2 °F - 51.8 °F 82% 30.19 in 10.0 mi South 8.1 mph 16.1 mph N/A   Overcast
7:35 PM 55.4 °F - 51.8 °F 88% 30.17 in 10.0 mi East 3.5 mph - N/A   Overcast
7:55 PM 55.4 °F - 51.8 °F 88% 30.16 in 10.0 mi East 8.1 mph - N/A   Overcast
8:15 PM 55.4 °F - 51.8 °F 88% 30.16 in 10.0 mi ENE 5.8 mph - N/A   Overcast
8:35 PM 57.2 °F - 51.8 °F 82% 30.16 in 10.0 mi ENE 4.6 mph - N/A   Overcast
8:55 PM 59.0 °F - 50.0 °F 72% 30.18 in 10.0 mi NW 3.5 mph - N/A   Overcast
9:15 PM 59.0 °F - 50.0 °F 72% 30.18 in 10.0 mi West 4.6 mph - N/A   Overcast
9:35 PM 59.0 °F - 50.0 °F 72% 30.19 in 10.0 mi West 9.2 mph - N/A   Overcast
9:55 PM 59.0 °F - 51.8 °F 77% 30.18 in 10.0 mi SW 4.6 mph - N/A   Drizzle
10:15 PM 57.2 °F - 51.8 °F 82% 30.17 in 10.0 mi Calm Calm - N/A   Overcast
10:35 PM 57.2 °F - 51.8 °F 82% 30.17 in 10.0 mi Calm Calm - N/A   Overcast
10:55 PM 59.0 °F - 51.8 °F 77% 30.16 in 10.0 mi Calm Calm - N/A Rain Light Rain
11:15 PM 57.2 °F - 51.8 °F 82% 30.16 in 10.0 mi NNE 4.6 mph - N/A Rain Light Rain
11:35 PM 57.2 °F - 51.8 °F 82% 30.16 in 10.0 mi NNE 5.8 mph - N/A   Overcast
11:55 PM 55.4 °F - 51.8 °F 88% 30.16 in 10.0 mi NW 3.5 mph - N/A Rain Rain